Temp
62 63 62 62 62 63 61 61 62 62 62 62 62 61 61 60 60 58 57 58 57 57 57 56 55 55 53 54 54 54 53 52 48 52 55 57 56 56 59 59 58 58 53
60 60 60 61 62 61 61 62 62 61 62 62 62 61 60 60 59 58 56 57 56 56 56 56 56 57 55 55 54 53 52 52 49 46 51 52 53 55 55 56 57 59 56
58 57 58 59 60 60 61 62 62 61 61 61 61 59 59 59 58 58 57 56 56 56 56 56 56 56 55 54 54 53 53 54 52 49 49 53 53 54 54 54 53 53 55
55 55 55 57 57 58 59 59 59 60 59 60 60 60 58 58 58 57 57 56 56 56 56 56 56 56 55 55 55 55 55 53 52 50 50 50 51 53 51 50 49 51 51
53 54 54 55 56 56 56 57 58 58 58 58 58 58 58 57 57 56 55 54 54 54 55 56 55 53 50 50 52 52 53 51 51 49 48 49 48 48 46 47 46 49 49
53 52 54 54 54 54 55 55 56 56 56 56 56 56 55 57 54 51 51 52 54 53 52 54 55 50 50 49 49 48 49 48 47 47 47 46 46 46 47 45 44 42 43
52 53 53 52 52 52 54 54 53 54 55 54 54 55 54 55 52 51 49 51 51 52 52 53 53 55 51 52 51 49 48 48 49 47 45 46 46 47 45 43 43 41 42
52 52 52 51 50 52 52 52 52 53 53 53 53 53 53 53 51 50 49 49 49 51 52 52 52 52 52 51 50 49 49 50 48 48 47 47 48 47 45 45 43 41 40
50 50 50 50 50 50 50 50 51 51 51 51 52 52 51 52 50 48 48 48 48 49 51 52 52 51 51 50 47 45 46 47 50 48 48 47 46 45 44 42 37 35 35
48 48 49 49 49 49 49 49 49 50 49 50 49 50 50 50 49 48 47 47 46 48 50 51 49 50 50 49 46 45 43 45 47 46 42 43 44 43 45 40 39 34 33
48 48 49 49 48 49 48 49 49 49 49 48 49 51 51 51 50 49 47 46 46 47 48 48 50 49 48 47 46 44 44 47 47 44 41 41 41 39 39 40 39 35 33
47 47 48 49 49 49 48 49 49 49 48 48 49 48 50 52 50 49 47 46 46 45 46 48 49 47 46 45 45 46 46 46 43 41 39 39 37 37 37 40 39 37 37
47 47 48 48 49 49 48 47 47 47 47 47 46 45 46 49 49 48 47 46 45 44 46 47 45 44 45 44 44 44 44 41 41 39 38 38 36 36 35 36 37 37 33
46 47 48 47 47 48 48 48 47 47 45 44 43 43 44 45 46 47 47 47 47 46 46 45 45 44 44 43 43 43 41 41 40 40 39 39 36 34 35 36 34 34 32
46 46 46 46 46 46 47 47 46 47 46 43 43 43 42 42 45 45 43 43 44 45 43 41 41 40 39 39 39 39 39 39 38 40 37 36 35 35 34 35 34 33 30
44 45 45 44 46 46 45 45 47 44 44 43 43 42 44 46 45 45 44 44 44 44 40 38 39 39 38 38 38 38 38 40 38 37 37 36 35 34 34 33 33 32 31
42 43 44 43 45 44 44 42 40 43 45 44 43 43 43 43 43 43 43 43 44 43 38 38 38 38 37 36 35 35 35 35 34 36 35 35 34 34 34 33 32 32 30
42 41 41 42 42 42 41 40 40 39 38 40 45 45 45 44 44 43 43 43 40 42 38 38 38 38 37 36 35 35 34 35 35 35 35 34 34 33 33 33 33 32 31
41 42 42 41 40 40 40 39 39 39 38 38 39 41 42 41 41 42 43 40 38 37 38 38 39 38 37 36 36 36 35 35 33 34 33 33 33 33 33 33 33 34 33
42 42 42 40 39 38 38 37 36 35 35 35 35 36 38 38 36 36 37 37 37 38 38 38 38 38 37 37 36 35 34 34 34 34 34 34 33 33 33 33 32 32 32
41 41 42 40 38 37 36 35 35 35 35 35 36 38 41 37 36 37 37 37 38 37 38 38 38 38 37 36 35 34 34 33 33 33 33 34 33 32 33 33 32 32 32
40 40 39 38 38 36 36 37 36 35 35 35 36 37 40 38 37 37 37 37 37 38 38 37 36 37 37 35 34 33 33 33 33 33 33 33 33 33 33 33 32 32 32
39 38 38 38 38 38 37 36 36 36 36 36 36 36 36 36 36 37 36 37 37 37 37 36 35 35 36 35 35 34 33 33 33 33 33 33 33 33 33 32 32 32 31
39 38 38 37 37 36 36 36 36 37 36 35 36 35 35 35 36 36 36 36 36 36 35 35 35 34 34 34 35 34 34 34 33 33 33 32 32 33 32 32 32 32 32
38 38 37 36 36 35 35 35 35 35 35 35 35 34 35 35 35 35 36 36 35 34 34 35 35 34 34 33 33 33 33 34 33 33 33 32 32 32 31 32 31 32 31
37 36 36 36 35 35 34 34 33 33 33 34 34 34 34 34 33 34 34 33 33 34 34 35 34 33 33 33 33 33 35 35 34 35 33 32 31 31 31 31 31 31 30
MSLP
1018.13 1017.87 1017.66 1017.44 1017.22 1017.04 1016.95 1016.89 1016.69 1016.45 1016.37 1016.32 1016.35 1016.35 1016.33 1016.34 1016.48 1016.57 1016.54 1016.38 1016.23 1016.18 1016.15 1016.16 1016.31 1016.53 1016.62 1016.38 1016.31 1016.19 1016.15 1016.04 1015.62 1015.08 1014.89 1014.52 1014.20 1014.04 1013.69 1013.55 1013.47 1013.57 1013.85
1018.35 1018.07 1017.68 1017.33 1017.02 1016.83 1016.63 1016.38 1016.21 1016.10 1016.05 1015.94 1015.94 1015.93 1015.94 1015.95 1016.14 1016.22 1016.22 1016.12 1016.01 1015.88 1015.85 1015.79 1015.73 1015.94 1016.05 1016.05 1016.03 1015.97 1015.94 1015.91 1015.81 1015.37 1015.12 1014.74 1014.46 1014.22 1013.87 1013.64 1013.53 1013.65 1013.75
1018.53 1018.26 1017.73 1017.28 1016.95 1016.66 1016.29 1015.94 1015.81 1015.82 1015.77 1015.65 1015.56 1015.57 1015.56 1015.58 1015.68 1015.83 1015.87 1015.82 1015.71 1015.63 1015.55 1015.45 1015.42 1015.40 1015.41 1015.42 1015.49 1015.49 1015.49 1015.37 1015.36 1015.28 1014.89 1014.63 1014.31 1014.06 1013.73 1013.50 1013.48 1013.65 1013.79
1018.58 1018.26 1017.88 1017.44 1017.14 1016.77 1016.28 1015.93 1015.77 1015.61 1015.42 1015.29 1015.16 1015.07 1015.08 1015.15 1015.22 1015.36 1015.46 1015.47 1015.45 1015.29 1015.18 1015.20 1015.18 1015.10 1015.01 1014.90 1014.81 1014.74 1014.65 1014.71 1014.76 1014.70 1014.61 1014.52 1014.31 1014.08 1013.93 1013.70 1013.53 1013.43 1013.51
1018.65 1018.34 1018.00 1017.52 1017.11 1016.69 1016.20 1015.91 1015.67 1015.47 1015.21 1014.96 1014.84 1014.76 1014.76 1014.83 1014.86 1014.90 1014.94 1015.00 1014.96 1014.88 1014.81 1014.82 1014.86 1014.87 1014.87 1014.90 1014.91 1014.73 1014.66 1014.65 1014.55 1014.36 1014.30 1014.16 1014.17 1014.24 1014.37 1014.37 1014.23 1014.00 1013.57
1018.76 1018.42 1017.91 1017.46 1017.08 1016.65 1016.27 1015.90 1015.58 1015.31 1014.99 1014.79 1014.62 1014.48 1014.36 1014.32 1014.34 1014.55 1014.79 1014.73 1014.45 1014.27 1014.23 1014.21 1014.17 1014.18 1014.32 1014.47 1014.57 1014.65 1014.72 1014.61 1014.49 1014.28 1014.05 1014.05 1014.07 1014.10 1014.23 1014.46 1014.58 1014.47 1014.04
1018.79 1018.35 1017.93 1017.59 1017.23 1016.82 1016.38 1015.98 1015.61 1015.22 1014.88 1014.61 1014.43 1014.29 1014.06 1013.97 1014.02 1014.10 1014.25 1014.40 1014.27 1014.00 1013.79 1013.66 1013.56 1013.57 1013.64 1013.79 1013.89 1014.00 1014.06 1014.13 1014.19 1014.29 1013.97 1013.72 1013.70 1013.64 1013.92 1014.34 1014.61 1014.64 1014.33
1018.82 1018.46 1018.10 1017.83 1017.46 1017.00 1016.49 1016.00 1015.56 1015.17 1014.82 1014.51 1014.29 1014.10 1013.92 1013.69 1013.61 1013.80 1014.00 1014.05 1013.73 1013.37 1013.20 1013.07 1013.03 1013.00 1013.00 1013.09 1013.23 1013.29 1013.22 1013.16 1013.21 1013.39 1013.50 1013.50 1013.51 1013.56 1013.75 1014.29 1014.52 1014.50 1014.26
1019.08 1018.81 1018.46 1018.09 1017.62 1017.11 1016.56 1016.08 1015.62 1015.20 1014.83 1014.51 1014.24 1013.97 1013.73 1013.48 1013.33 1013.37 1013.55 1013.53 1013.21 1012.84 1012.58 1012.42 1012.39 1012.39 1012.48 1012.68 1012.85 1012.91 1012.81 1012.58 1012.37 1012.48 1012.66 1012.91 1013.13 1013.37 1013.70 1013.94 1014.30 1014.59 1014.37
1019.34 1019.01 1018.64 1018.24 1017.70 1017.18 1016.68 1016.20 1015.73 1015.34 1014.92 1014.57 1014.14 1013.81 1013.44 1013.17 1013.00 1012.94 1013.13 1013.13 1012.74 1012.39 1012.03 1011.83 1011.81 1011.80 1011.91 1012.11 1012.26 1012.33 1012.14 1011.93 1011.91 1011.94 1012.34 1012.56 1012.77 1012.99 1013.38 1013.62 1013.64 1013.99 1014.25
1019.51 1019.04 1018.50 1018.03 1017.59 1017.18 1016.81 1016.34 1015.79 1015.26 1014.81 1014.35 1013.84 1013.43 1013.08 1012.81 1012.56 1012.56 1012.66 1012.68 1012.44 1012.08 1011.71 1011.45 1011.31 1011.22 1011.31 1011.54 1011.78 1011.82 1011.50 1011.39 1011.30 1011.38 1011.59 1011.81 1012.10 1012.43 1012.75 1013.12 1013.29 1013.38 1013.64
1019.41 1018.96 1018.40 1017.89 1017.45 1016.93 1016.46 1015.95 1015.56 1015.10 1014.67 1014.20 1013.66 1013.20 1012.88 1012.48 1012.28 1012.29 1012.32 1012.36 1012.27 1012.06 1011.56 1011.19 1011.01 1010.97 1011.04 1011.15 1011.26 1011.19 1011.15 1011.22 1011.17 1011.28 1011.36 1011.47 1011.67 1012.00 1012.23 1012.56 1012.75 1012.94 1013.04
1019.01 1018.64 1018.23 1017.84 1017.32 1016.84 1016.34 1015.88 1015.46 1015.07 1014.65 1014.17 1013.82 1013.38 1012.85 1012.50 1012.33 1012.14 1012.08 1012.03 1011.93 1011.78 1011.41 1011.08 1010.90 1010.82 1010.72 1010.62 1010.55 1010.52 1010.58 1010.59 1010.59 1010.74 1010.88 1011.03 1011.21 1011.33 1011.73 1012.08 1012.32 1012.48 1012.83
1018.77 1018.30 1017.84 1017.49 1017.08 1016.64 1016.25 1015.76 1015.29 1014.86 1014.65 1014.39 1013.96 1013.52 1013.00 1012.67 1012.39 1012.13 1012.03 1011.79 1011.48 1011.29 1010.97 1010.76 1010.60 1010.48 1010.37 1010.20 1010.00 1009.87 1009.85 1009.87 1009.87 1009.85 1010.11 1010.41 1010.70 1011.01 1011.33 1011.65 1012.05 1012.33 1012.69
1018.69 1018.21 1017.78 1017.39 1017.00 1016.46 1016.05 1015.69 1015.38 1014.95 1014.74 1014.51 1014.05 1013.66 1013.20 1012.60 1012.22 1012.08 1012.05 1011.76 1011.37 1011.06 1010.91 1010.63 1010.37 1010.10 1009.85 1009.67 1009.53 1009.47 1009.34 1009.29 1009.36 1009.37 1009.47 1009.81 1010.27 1010.54 1010.79 1011.12 1011.38 1011.74 1011.85
1018.52 1018.08 1017.58 1017.26 1016.82 1016.25 1015.78 1015.26 1014.98 1014.61 1014.17 1014.08 1013.88 1013.74 1013.13 1012.40 1011.80 1011.55 1011.33 1011.07 1010.82 1010.60 1010.48 1010.13 1009.71 1009.56 1009.55 1009.45 1009.33 1009.16 1009.08 1009.02 1009.05 1009.12 1009.19 1009.40 1009.70 1009.97 1010.20 1010.48 1010.72 1010.91 1010.97
1018.40 1018.01 1017.68 1016.99 1016.49 1016.10 1015.59 1015.13 1014.57 1013.97 1013.76 1013.28 1012.97 1012.68 1012.43 1012.09 1011.73 1011.49 1011.06 1010.58 1010.24 1010.06 1009.77 1009.41 1009.09 1008.78 1008.60 1008.72 1008.82 1008.85 1008.84 1008.77 1008.61 1008.79 1008.84 1008.94 1009.07 1009.24 1009.47 1009.56 1009.75 1009.94 1010.06
1018.11 1017.75 1017.37 1016.80 1016.39 1016.13 1015.68 1015.17 1014.70 1014.15 1013.44 1012.83 1012.44 1012.24 1011.93 1011.56 1011.20 1010.82 1010.46 1010.07 1009.53 1009.07 1008.98 1008.69 1008.37 1008.19 1008.06 1008.03 1008.09 1008.20 1008.21 1008.27 1008.43 1008.51 1008.51 1008.50 1008.50 1008.55 1008.61 1008.63 1008.71 1008.86 1008.99
1017.51 1017.12 1016.70 1016.35 1016.10 1015.79 1015.40 1014.94 1014.48 1014.03 1013.52 1013.05 1012.60 1012.09 1011.87 1011.64 1011.28 1010.81 1010.32 1009.76 1009.20 1008.67 1008.34 1007.98 1007.70 1007.48 1007.39 1007.32 1007.33 1007.45 1007.53 1007.53 1007.67 1007.82 1007.89 1007.84 1007.83 1007.88 1007.78 1007.76 1007.82 1007.85 1008.01
1016.69 1016.32 1016.12 1015.84 1015.51 1015.23 1014.92 1014.54 1014.17 1013.88 1013.50 1013.08 1012.66 1012.16 1011.71 1011.35 1010.70 1010.15 1009.86 1009.52 1008.98 1008.33 1007.83 1007.39 1007.01 1006.81 1006.70 1006.65 1006.64 1006.73 1006.86 1006.93 1007.02 1007.10 1007.03 1006.98 1006.99 1007.03 1007.01 1007.00 1006.99 1007.09 1007.11
1016.01 1015.68 1015.40 1015.23 1014.88 1014.60 1014.31 1014.01 1013.62 1013.22 1012.78 1012.33 1011.74 1011.23 1010.88 1010.46 1009.84 1009.36 1008.90 1008.42 1007.95 1007.51 1007.11 1006.74 1006.38 1006.01 1005.85 1005.92 1005.99 1006.08 1006.17 1006.20 1006.28 1006.27 1006.21 1006.11 1006.10 1006.18 1006.16 1006.21 1006.27 1006.27 1006.34
1015.48 1015.16 1014.84 1014.53 1014.19 1013.84 1013.49 1013.11 1012.73 1012.39 1011.96 1011.50 1010.91 1010.42 1009.98 1009.63 1009.13 1008.56 1007.98 1007.62 1007.26 1006.87 1006.42 1006.05 1005.68 1005.36 1005.16 1005.22 1005.30 1005.41 1005.48 1005.48 1005.43 1005.44 1005.33 1005.27 1005.27 1005.28 1005.35 1005.28 1005.42 1005.47 1005.46
1014.79 1014.44 1014.07 1013.71 1013.39 1013.02 1012.66 1012.30 1011.91 1011.51 1011.03 1010.58 1010.15 1009.69 1009.32 1008.86 1008.30 1007.67 1007.17 1006.79 1006.49 1006.05 1005.70 1005.36 1004.95 1004.60 1004.43 1004.38 1004.45 1004.41 1004.48 1004.57 1004.55 1004.66 1004.57 1004.45 1004.41 1004.36 1004.40 1004.43 1004.42 1004.46 1004.54
1014.04 1013.68 1013.29 1012.87 1012.52 1012.24 1011.83 1011.41 1011.01 1010.60 1010.19 1009.74 1009.35 1008.90 1008.52 1008.04 1007.46 1006.86 1006.31 1005.90 1005.48 1005.17 1004.80 1004.49 1004.19 1003.94 1003.79 1003.72 1003.72 1003.70 1003.69 1003.71 1003.77 1003.84 1003.81 1003.69 1003.55 1003.64 1003.62 1003.55 1003.57 1003.53 1003.65
1013.17 1012.79 1012.40 1012.02 1011.72 1011.40 1011.02 1010.61 1010.19 1009.78 1009.38 1008.99 1008.55 1008.17 1007.69 1007.09 1006.53 1006.05 1005.57 1005.09 1004.69 1004.32 1003.92 1003.59 1003.30 1003.10 1002.98 1002.97 1002.97 1002.92 1002.85 1002.89 1002.95 1002.95 1002.91 1002.85 1002.77 1002.84 1002.89 1002.82 1002.85 1002.80 1002.84
1012.50 1012.12 1011.71 1011.32 1010.99 1010.73 1010.39 1009.93 1009.48 1009.12 1008.74 1008.31 1007.78 1007.27 1006.77 1006.19 1005.67 1005.21 1004.80 1004.34 1003.87 1003.33 1002.92 1002.60 1002.38 1002.31 1002.30 1002.25 1002.16 1002.06 1002.01 1001.96 1001.93 1001.91 1001.93 1001.91 1002.01 1002.04 1002.00 1001.98 1002.01 1002.00 1002.08
Wind_Speed
8 8 8 7 8 8 7 9 9 9 9 9 9 9 8 8 7 7 8 7 7 7 6 6 6 6 5 4 3 3 4 4 7 6 7 9 10 10 8 6 3 4 6
10 10 9 9 8 8 8 9 8 10 10 10 9 9 9 8 8 8 8 7 7 7 7 7 7 5 7 6 6 6 5 5 4 9 6 6 8 8 8 7 2 2 4
10 10 10 10 9 9 9 8 8 9 10 10 9 9 9 8 8 8 9 9 8 8 8 8 7 7 7 5 6 6 6 6 6 5 8 6 6 5 6 4 1 1 1
9 9 10 10 10 10 10 9 9 9 9 9 9 9 8 9 8 8 8 8 9 8 8 8 8 8 8 7 6 6 6 5 5 5 6 6 6 5 3 4 4 1 1
10 9 9 9 9 9 9 9 9 8 8 8 8 8 8 8 7 8 8 8 9 9 9 8 8 9 7 5 5 6 6 6 5 5 5 6 6 6 5 3 3 6 1
9 9 9 9 10 9 9 8 8 8 8 7 8 9 9 7 9 9 9 8 9 9 9 9 9 9 10 12 13 14 10 7 8 6 4 6 7 3 5 4 5 2 4
9 9 10 10 10 9 9 9 8 8 7 7 8 8 9 9 9 11 12 9 9 10 10 9 8 7 7 7 10 15 14 15 17 10 9 7 7 3 0 2 6 4 5
9 9 10 10 10 10 9 8 8 7 7 7 7 8 8 7 9 9 11 9 10 11 11 11 10 10 9 8 8 8 8 8 11 10 11 11 7 3 3 4 5 5 4
10 10 11 10 10 10 10 9 9 8 8 8 8 8 9 9 9 9 9 8 9 11 10 11 10 10 10 9 8 9 10 9 8 10 9 7 4 2 5 3 5 3 3
10 11 11 10 10 10 10 10 8 8 8 7 9 9 10 9 10 10 8 6 8 7 9 9 11 12 12 9 9 9 10 9 7 6 5 7 9 7 13 7 4 4 3
10 10 10 9 9 9 9 9 8 8 8 8 9 8 8 8 7 9 7 7 7 7 7 6 6 9 13 14 14 10 11 8 7 5 4 4 6 6 5 7 6 3 4
9 9 9 9 8 7 9 8 9 9 9 8 8 7 6 7 6 6 7 10 11 8 8 7 6 8 8 9 10 15 16 14 6 4 4 5 4 5 5 6 8 5 4
9 9 8 9 8 8 8 8 7 7 7 7 6 6 6 5 5 7 7 9 10 8 7 8 12 12 12 10 15 17 15 6 7 7 8 6 3 4 5 4 5 5 3
10 10 8 9 10 9 7 6 6 6 6 6 6 6 6 5 5 3 5 5 6 6 7 5 6 8 12 12 9 6 5 6 7 7 8 7 2 3 5 5 6 7 7
9 8 8 7 9 9 7 7 7 8 6 6 6 6 6 7 5 5 7 6 6 7 9 5 5 5 4 4 4 4 4 4 5 6 3 4 5 5 6 6 6 6 8
10 7 6 7 8 6 7 7 7 12 15 14 17 13 10 14 16 15 15 15 15 14 5 7 7 6 6 6 5 4 4 6 5 5 5 5 6 5 6 6 6 8 9
9 9 7 8 7 8 8 8 9 8 11 14 16 17 17 18 20 20 20 19 18 14 7 8 8 7 6 6 6 5 6 4 3 5 5 5 5 6 9 7 8 8 8
9 12 7 7 7 8 8 8 8 9 10 10 10 10 12 16 18 19 20 17 10 8 7 9 9 7 6 6 5 5 4 4 4 5 8 8 6 6 7 8 8 9 9
8 7 7 7 7 9 8 8 8 8 9 9 9 12 13 18 20 20 21 10 9 9 9 8 8 7 7 6 5 5 6 5 4 5 6 6 6 7 7 8 8 14 13
8 12 12 7 7 7 7 7 7 7 8 8 10 11 11 14 11 10 8 9 10 11 10 10 8 7 7 6 5 5 5 5 5 6 7 7 6 6 7 8 7 8 8
7 7 13 8 7 7 7 8 8 8 9 9 10 11 21 13 11 11 11 10 10 10 9 9 8 7 6 5 5 5 6 6 6 7 7 7 6 6 7 7 7 7 8
7 8 8 8 8 8 9 8 9 10 10 10 10 11 20 11 10 11 10 9 9 10 9 9 8 7 6 6 6 6 7 7 7 7 7 6 6 6 7 7 7 7 7
8 9 9 9 9 13 10 10 9 10 11 11 11 10 10 10 11 11 10 10 9 10 10 9 9 8 7 6 7 7 7 7 7 6 7 7 6 6 6 7 7 7 7
9 10 11 10 9 9 10 11 10 13 12 11 11 11 10 11 12 12 12 10 10 10 9 9 8 9 8 7 7 7 7 6 6 7 10 8 7 7 6 7 7 11 7
10 10 10 10 10 10 11 10 11 11 11 11 11 10 11 12 11 11 11 11 10 9 12 9 8 10 10 11 10 10 9 14 11 10 7 9 10 10 9 8 8 8 8
10 11 12 11 11 11 11 10 11 10 11 11 11 11 11 12 10 10 10 10 10 10 10 8 8 10 10 10 11 13 16 17 14 15 8 6 8 9 8 10 11 8 7
Wind_Direction
321 318 313 306 303 291 274 269 268 269 265 264 261 262 262 259 257 255 257 262 260 261 261 251 242 248 272 283 279 266 277 283 286 300 313 325 333 340 343 345 19 358 73
323 316 308 304 298 291 284 281 276 271 267 261 260 261 259 259 258 256 259 264 261 262 262 259 260 246 249 254 261 255 248 256 264 286 296 296 294 303 305 308 337 348 65
322 315 310 307 306 303 298 295 289 276 268 265 258 256 259 255 255 256 258 260 259 260 260 262 265 258 249 243 245 259 260 256 271 272 288 288 293 292 293 293 233 333 139
327 320 314 313 313 308 307 304 295 286 275 268 265 261 251 256 257 254 258 262 264 264 265 265 265 263 262 265 260 261 261 265 241 250 276 294 298 317 326 303 312 191 71
326 322 318 319 316 314 311 304 297 291 280 275 271 267 264 255 250 246 242 250 259 266 267 257 253 254 269 287 283 279 282 277 282 277 267 285 293 303 304 335 316 308 312
328 323 326 325 323 321 316 312 303 294 290 280 270 266 262 256 246 227 244 262 262 256 257 260 262 238 231 240 247 244 251 269 267 269 271 277 274 254 261 282 296 301 290
331 333 336 332 326 323 319 313 308 302 299 290 282 276 270 267 256 233 223 246 257 258 258 259 255 250 239 248 243 231 238 238 245 259 271 259 278 274 172 272 271 264 268
334 336 338 333 326 322 319 317 316 315 310 303 293 289 282 271 257 252 239 254 255 253 253 255 256 257 252 238 237 250 246 237 224 225 243 259 268 285 175 238 259 293 317
344 338 334 332 325 324 322 321 319 318 312 306 303 295 284 280 269 243 239 255 255 256 256 254 249 252 254 249 239 250 258 252 244 227 244 264 206 215 253 214 216 218 253
339 332 328 325 323 323 322 320 315 310 305 303 296 289 284 282 276 265 238 261 263 262 261 260 251 247 247 255 233 238 252 249 242 212 207 241 236 226 240 232 206 204 206
325 325 323 323 320 320 312 311 308 307 301 300 300 300 302 294 291 288 256 262 267 272 269 270 267 254 241 240 241 247 247 256 255 232 226 214 198 193 203 216 230 181 201
323 317 318 322 321 312 312 312 315 311 309 306 307 314 309 314 315 295 285 274 274 277 275 274 271 271 271 248 251 258 260 262 256 251 229 223 201 207 204 218 226 223 212
315 315 318 318 313 319 316 314 314 313 309 311 318 312 313 323 318 315 268 280 283 268 271 282 307 297 276 265 259 255 259 246 234 233 242 244 206 202 187 197 228 217 218
315 318 318 317 322 311 314 307 300 301 311 304 304 303 307 308 303 319 331 321 291 266 272 275 282 280 281 271 279 262 234 230 228 231 236 241 209 164 193 203 220 219 231
314 311 315 317 312 310 307 303 303 298 300 295 290 290 294 291 279 297 293 292 290 287 306 286 285 284 275 255 248 238 246 237 233 246 228 204 222 196 210 206 207 208 222
311 312 313 311 307 306 305 305 280 257 269 268 267 263 280 272 272 270 273 270 271 275 272 266 260 248 259 267 272 277 272 264 252 247 247 230 229 220 222 208 203 218 223
294 298 303 304 304 310 310 311 309 306 277 264 268 267 258 260 281 286 285 282 280 277 247 258 257 247 240 230 234 235 256 251 238 241 235 229 219 219 228 214 209 214 220
286 283 280 287 298 297 299 301 302 305 310 310 306 302 298 291 291 293 294 303 292 275 248 256 258 257 244 230 221 224 226 229 241 255 254 248 235 227 226 226 219 217 221
277 276 280 285 284 285 288 288 294 300 304 308 314 315 322 325 320 315 313 293 284 282 278 267 254 251 247 231 223 224 229 222 215 229 236 234 230 228 234 233 229 227 225
266 266 272 275 278 282 283 287 291 292 290 291 295 294 302 312 308 305 297 290 287 286 281 276 269 255 248 236 228 227 232 234 238 244 244 236 233 231 238 239 230 231 232
265 270 274 276 270 273 274 273 272 275 276 278 277 276 283 288 287 290 294 287 280 275 273 274 272 257 242 233 229 227 229 235 238 250 248 239 225 237 234 236 240 232 232
267 270 272 272 277 274 271 271 274 274 273 277 281 285 295 289 284 282 287 287 284 280 274 270 263 256 238 222 220 228 235 240 243 246 244 237 231 232 237 236 237 235 231
264 267 269 267 268 275 277 274 274 275 275 277 282 288 289 286 285 282 284 281 283 283 280 270 260 251 239 225 220 220 228 241 241 241 248 242 236 233 227 237 234 238 227
260 267 269 270 271 271 272 276 277 277 279 279 280 280 283 284 284 284 286 280 285 276 276 265 254 248 251 240 238 234 233 234 235 240 240 247 242 243 239 237 238 247 231
270 270 267 270 274 276 279 277 279 281 284 283 283 276 281 283 281 281 282 284 281 278 279 260 248 245 242 243 243 237 235 238 239 241 235 240 240 242 248 246 246 244 220
272 272 275 277 278 281 280 281 283 284 284 285 282 280 284 285 282 283 281 280 279 274 268 260 248 241 247 251 249 247 251 257 260 255 244 236 250 256 247 243 242 238 212